Location: Hackbridge
(51.3833°N, 0.1500°W)
Time: 07:27:25
(UTC+00:00)

Cosmos 1844 - Pass Details

Date: 13 October 2019
Orbit: 821 x 869 km, 70.9° (Epoch: 14 November)

Event Time Altitude Azimuth Distance (km) Brightness Sun altitude
Rises 18:53:09 0° 202° (SSW) 3,395 7.0 -16.5°
Reaches altitude 10° 18:55:35 10° 201° (SSW) 2,471 6.3 -16.8°
Maximum altitude 19:01:15 75° 116° (ESE) 891 3.6 -17.7°
Drops below altitude 10° 19:07:02 10° 33° (NNE) 2,516 5.9 -18.6°
Sets 19:09:31 0° 32° (NNE) 3,461 6.7 -19.0°
